Weather History for Toledo, OH

Change the Weather History Date:

Tuesday, November 20, 2012

  Actual Average Record
Temperature  
Mean Temperature 46 °F 40 °F  
Max Temperature 58 °F 48 °F 71 °F (1953)
Min Temperature 34 °F 32 °F 13 °F (1951)
Degree Days  
Heating Degree Days 19 25  
Month to date heating degree days 495 429  
Since 1 July heating degree days 1057 955  
Cooling Degree Days 0 0  
Month to date cooling degree days 0 0  
Year to date cooling degree days 998 793  
Moisture  
Dew Point 36 °F    
Average Humidity 68    
Maximum Humidity 92    
Minimum Humidity 43    
Precipitation  
Precipitation T in 0.10 in 1.12 in (1991)
Month to date precipitation 0.85 1.87  
Year to date precipitation 28.05 30.57  
Snow  
Snow 0.00 in 0.10 in - ()
Month to date snowfall 0.0 0.9  
Since 1 July snowfall T 1.1  
Since 1 September snowfall T 1.1  
Snow Depth 0.00 in    
Sea Level Pressure  
Sea Level Pressure 30.14 in    
Wind  
Wind Speed 1 mph (East)    
Max Wind Speed 6 mph    
Max Gust Speed 8 mph    
Visibility 9 miles    
Events      
T = Trace of Precipitation, MM = Missing Value Source: NWS Daily Summary

Daily Weather History Graph

Daily Weather History Graph

Search for Another Location

Airport:

Trip Planner

Search our weather history database for the weather conditions in past years. The results will help you decide how hot, cold, wet, or windy it might be!

Date:

Astronomy

Nov. 20, 2012 Rise Set
Actual Time 7:30 AM EST 5:10 PM EST
Civil Twilight 7:00 AM EST 5:41 PM EST
Nautical Twilight 6:26 AM EST 6:15 PM EST
Astronomical Twilight 5:53 AM EST 6:48 PM EST
Moon 1:01 PM EST No Moon Set
Length of Visible Light 10h 40m
Length of Day
9h 40m
Waxing Crescent, 51% of the Moon is Illuminated
Nov 20
Waxing Crescent
Nov 28
Full
Dec 6
Last Quarter
Dec 13
New
Dec 20
First Quarter

Hourly Weather History & Observations

Time (EST) Temp. Dew Point Humidity Pressure Visibility Wind Dir Wind Speed Gust Speed Precip Events Conditions
12:52 AM 36.0 °F 32.0 °F 86% 30.18 in 9.0 mi Calm Calm - N/A   Mostly Cloudy
1:52 AM 37.0 °F 33.1 °F 86% 30.17 in 10.0 mi Calm Calm - N/A   Scattered Clouds
2:52 AM 37.4 °F 33.8 °F 87% 30.15 in 9.0 mi Calm Calm - N/A   Clear
3:52 AM 37.9 °F 34.0 °F 86% 30.15 in 10.0 mi Calm Calm - N/A   Scattered Clouds
4:52 AM 37.9 °F 34.0 °F 86% 30.15 in 9.0 mi Calm Calm - N/A   Mostly Cloudy
5:52 AM 39.0 °F 34.0 °F 82% 30.15 in 10.0 mi Calm Calm - N/A   Mostly Cloudy
6:52 AM 37.0 °F 33.1 °F 86% 30.15 in 9.0 mi Calm Calm - N/A   Mostly Cloudy
7:52 AM 37.9 °F 35.1 °F 89% 30.15 in 7.0 mi Calm Calm - N/A   Overcast
8:52 AM 41.0 °F 36.0 °F 82% 30.16 in 8.0 mi Calm Calm - N/A   Overcast
9:52 AM 46.0 °F 37.0 °F 71% 30.15 in 9.0 mi Calm Calm - N/A   Mostly Cloudy
10:52 AM 50.0 °F 36.0 °F 59% 30.15 in 10.0 mi Calm Calm - N/A   Scattered Clouds
11:52 AM 53.1 °F 36.0 °F 52% 30.13 in 10.0 mi Calm Calm - N/A   Mostly Cloudy
12:52 PM 55.0 °F 36.0 °F 49% 30.11 in 10.0 mi East 4.6 mph - N/A   Clear
1:52 PM 57.0 °F 36.0 °F 45% 30.09 in 10.0 mi SE 4.6 mph - N/A   Overcast
2:52 PM 55.9 °F 35.1 °F 45% 30.09 in 10.0 mi Calm Calm - N/A   Overcast
3:52 PM 55.0 °F 36.0 °F 49% 30.09 in 10.0 mi Calm Calm - N/A   Overcast
4:52 PM 54.0 °F 37.9 °F 55% 30.10 in 10.0 mi Calm Calm - N/A   Overcast
5:52 PM 51.1 °F 37.0 °F 59% 30.12 in 10.0 mi Calm Calm - N/A   Overcast
6:52 PM 50.0 °F 37.9 °F 63% 30.13 in 10.0 mi NE 3.5 mph - 0.00 in   Overcast
7:52 PM 50.0 °F 37.9 °F 63% 30.14 in 10.0 mi Calm Calm - N/A   Overcast
8:52 PM 48.9 °F 39.9 °F 71% 30.15 in 9.0 mi ENE 4.6 mph - N/A   Overcast
9:52 PM 48.9 °F 39.0 °F 69% 30.15 in 9.0 mi Calm Calm - N/A   Overcast
10:52 PM 46.0 °F 37.9 °F 73% 30.15 in 8.0 mi Calm Calm - N/A   Partly Cloudy
11:52 PM 42.1 °F 37.0 °F 82% 30.16 in 6.0 mi Calm Calm - N/A   Haze